Regional Weather Roundup
Issued by NWS

Home | Current Version | Previous Version | Graphics & Text | Print | Product List | Glossary On
Versions: 1 2 3 4 5 6 7 8 9 10 11 12 13 14 15 16 17 18 19 20 21 22 23 24 25 26 27 28 29 30 31 32 33 34 35 36 37 38 39 40 41 42 43 44 45 46 47 48 49 50
000
ASUS43 KBIS 170920
RWRND

NORTH DAKOTA REGIONAL WEATHER ROUNDUP
NATIONAL WEATHER SERVICE BISMARCK ND
400 AM CDT WED SEP 17 2014

NOTE: "FAIR" INDICATES FEW OR NO CLOUDS BELOW 12,000 FEET WITH NO
SIGNIFICANT WEATHER AND/OR OBSTRUCTIONS TO VISIBILITY.


NDZ001>003-009>011-017-171000-
NORTHWEST NORTH DAKOTA

CITY           SKY/WX    TMP DP  RH WIND       PRES   REMARKS
WILLISTON      CLEAR     41  36  82 CALM      29.93S
MINOT          CLEAR     47  41  80 SW8       29.91S
MINOT AFB      CLEAR     43  41  93 S1        29.92R
$$

NDZ018>021-031>035-040>046-171000-
SOUTHWEST NORTH DAKOTA

CITY           SKY/WX    TMP DP  RH WIND       PRES   REMARKS
BISMARCK       CLEAR     42  41  96 CALM      29.94S
DICKINSON      PTCLDY    45  41  86 W3        29.94R
GARRISON         N/A     43  40  89 N5        29.93S
HETTINGER ARPT CLEAR     41  39  93 CALM      29.95S
$$

NDZ004>008-012>016-024-026-027-054-171000-
NORTHEAST NORTH DAKOTA

CITY           SKY/WX    TMP DP  RH WIND       PRES   REMARKS
GRAND FORKS    CLEAR     45  41  86 S3        29.89F
GRND FRKS AFB  CLEAR     47  44  88 SW5       29.89F
DEVILS LAKE    CLEAR     52  43  71 W3        29.90S
$$

NDZ022-023-025-028>030-036>039-047>053-171000-
SOUTHEAST NORTH DAKOTA

CITY           SKY/WX    TMP DP  RH WIND       PRES   REMARKS
FARGO          CLEAR     49  45  86 S5        29.89F
JAMESTOWN      CLEAR     43  41  93 W3        29.91S
$$



USA.gov is the U.S. government's official web portal to all federal, state and local government web resources and services.